BREEZE-M DEB (TANK), 41390

Orbit data source: Space-Track

BREEZE-M DEB (TANK), 41390 is space debris in HEO originally from a launch on Mon, 14 Mar 2016 UTC launched from the Tyuratam Missile And Space Complex (TTMTR). Debris objects in space refer to the collection of defunct objects orbiting the Earth. Examples of debris include non-operational satellites, rocket bodies, and fragments generated from explosions, collisions, or faulty payload assembly.

Loading next visibility...
Identifier
41390, 2016-017C
Orbit
HEO
Country
Flag of CISCIS
Related business
Manufacturer
Khrunichev
Mission
Spacecraft
Bus & Motor
BRIZ TANK, Unknown motor
Mass
~1,000 kg wet, 1,000 kg dry
Launch date (UTC)
Icon of a cake. It is the launch day of the satellite!2016-03-14 (10 years ago)
Launch vehicle
Unknown
Launch site
Tyuratam Missile And Space Complex (TTMTR)
Object type
Payload
Rocket body
Debris
Shape & HBR
Torus, 2.0 m
Radar Cross Section
8.218 m², Large (>1 m²)

Expand to show TLE details & history
Last TLE update: 1 day ago

TLE from 1 day ago
0 BREEZE-M DEB (TANK)
1 41390U 16017C   26072.38955869  .00000006  00000-0  22712-3 0  9995
2 41390  51.5730 115.2802 5945604 252.1654  37.5406  3.82673831139758
Epoch: 2026-03-13T09:20Z
TLE epoch observation values (Epoch: 2026-03-13T09:20:57.870Z)
Latitude
0.00001°
Longitude
164.03521°
Altitude
7,277.458 km
Speed
5.941 km/s
True Right ascension
07h 41m 12s
True Declination
0° 00' 00"
Sunlit
Object was in daylight at epoch
Visualization orbit readout
Latitude
Unknown
Longitude
Unknown
Altitude
Unknown
Speed
Unknown
Apparent Right ascension
Unknown
Apparent Declination
Unknown
Sunlit
N/A
Visualization observer readout
Local Sidereal Time
19:14:42
Azimuth
Unknown
Elevation
Unknown
Doppler factor
Unknown
Orbital elements
Apogee altitude
21,153.606 km
Perigee altitude
622.199 km
Semi-major axis
17,266.04 km
Eccentricity
0.59456
Inclination
51.573°
RAAN
115.2802°
Arg. of periapsis
252.1654°
True anomaly
107.91026°
Mean anomaly
37.5406°
Eccentric anomaly
69.43568°
Mean motion
0.95665 °/min
Orbital period
376.31 mins
BSTAR
0.00022712
Loading maneuver chart data...
Computing Atmospheric mass density...
Loading historical data...
Loading historical data...
Loading historical data...
Loading historical data...
Loading historical data...
Loading historical data...
Loading historical data...
Other satellites on launch #17 in the year 2016 (2016-03-14 UTC)

Documentation

Showing up to 5 results
|